Wind_Speed
35 34 36 37 39 40 41 42 43 44 45 45 44 43 43 42 41 41 40 39 38 38 37 35 34 31 31 30 27 26 24 23 23 21 20 21 20 20 21 21 19 19 18
42 42 44 43 42 43 46 47 48 48 48 49 49 49 49 48 46 45 44 42 42 40 40 38 37 36 34 34 31 28 26 24 24 23 22 22 21 21 21 22 22 22 21
44 45 46 48 49 49 46 48 51 53 54 53 53 54 54 53 52 51 49 47 46 45 43 42 40 38 36 36 34 32 30 27 25 25 24 23 23 22 22 22 23 24 24
47 49 50 51 52 53 55 57 55 53 55 58 59 58 57 57 57 56 54 52 50 49 47 45 44 42 40 38 36 34 33 31 28 26 25 25 24 23 23 22 23 24 26
51 53 54 55 57 57 58 59 61 64 64 60 60 62 62 62 61 60 59 56 55 53 51 50 47 46 43 40 39 37 34 34 31 29 27 27 26 25 24 23 23 23 25
56 58 59 60 61 62 65 66 66 67 69 70 69 65 65 65 64 64 62 61 59 57 55 53 50 48 47 44 42 40 37 36 35 32 29 28 27 27 26 25 25 24 25
58 59 59 62 66 68 69 69 72 72 72 72 73 75 70 64 67 66 65 65 61 60 59 57 53 51 49 48 45 43 41 38 37 35 32 30 29 28 28 26 27 26 25
67 68 69 69 69 67 66 68 71 73 75 77 78 76 76 75 70 66 65 65 65 64 62 61 59 57 53 50 48 46 44 41 39 37 35 33 31 30 29 28 27 28 27
69 72 74 75 74 73 72 71 71 70 70 73 77 79 79 79 76 72 68 67 65 66 64 62 61 60 59 55 52 50 47 44 42 40 38 36 34 32 31 30 29 28 28
72 73 73 73 72 73 75 77 78 79 79 77 77 78 77 78 79 78 78 67 64 69 66 60 60 61 60 58 54 52 50 47 45 43 41 39 36 34 33 32 31 30 29
73 73 74 75 78 80 80 79 77 77 77 76 79 80 78 76 77 77 77 74 66 59 70 64 57 57 60 60 57 54 52 50 48 47 43 41 39 36 35 34 33 32 31
76 76 75 74 74 73 73 74 76 78 78 77 76 76 77 76 74 75 75 77 78 68 53 58 53 53 55 58 58 56 53 51 50 49 47 44 42 39 37 36 35 34 33
77 75 75 75 76 77 79 81 84 85 85 85 83 81 80 77 74 73 74 73 76 70 71 67 60 54 54 54 55 56 55 53 51 51 50 47 44 42 40 38 37 36 35
74 74 76 79 83 83 78 75 74 72 72 72 74 79 81 81 81 77 76 74 74 69 70 61 60 59 54 51 51 53 55 55 52 51 51 49 47 44 42 41 39 38 37
75 78 82 82 77 74 69 65 63 61 65 65 66 67 70 72 78 81 80 80 75 73 74 70 73 61 57 55 51 49 52 54 53 52 52 52 50 47 44 43 42 40 39
81 82 79 76 72 64 60 62 65 65 65 65 66 68 68 68 68 76 80 80 82 77 73 69 71 70 63 61 57 54 52 51 52 53 52 52 51 50 47 45 43 42 41
82 79 76 71 64 65 66 67 65 65 66 65 66 66 67 67 70 70 76 80 80 81 77 72 72 70 72 66 61 57 55 52 48 51 53 53 52 50 49 47 45 44 43
80 76 69 65 65 67 65 63 63 63 64 63 63 65 66 67 67 68 71 75 76 78 79 75 75 74 74 73 64 63 60 56 52 50 52 54 52 51 51 49 47 46 44
77 70 67 66 67 66 64 62 60 61 61 59 60 59 59 59 60 62 66 68 70 73 75 77 74 76 74 73 72 68 66 63 56 53 51 52 52 51 51 50 49 47 45
72 68 68 70 67 63 62 61 60 58 55 54 55 52 51 53 55 56 59 60 62 67 69 74 72 76 76 75 71 69 66 67 61 57 52 52 51 50 50 50 49 49 46
72 72 72 69 67 64 61 58 54 52 50 49 46 44 46 49 52 54 54 54 55 61 66 67 70 73 75 74 72 65 67 67 63 60 55 53 54 51 50 49 49 48 47
76 73 69 64 58 53 48 48 46 45 46 42 37 35 38 45 48 49 50 48 50 52 56 61 67 70 70 71 71 67 67 68 68 62 57 54 55 53 51 50 49 49 49
65 62 56 49 45 45 43 41 41 41 39 32 30 30 41 42 44 46 48 47 48 49 49 49 54 63 68 69 69 66 66 66 65 63 61 58 59 54 52 50 49 49 50
48 43 41 42 42 40 39 39 38 36 29 29 37 42 42 42 45 43 42 43 44 45 44 42 44 47 52 64 70 69 69 67 65 64 61 61 61 55 54 51 48 46 47
45 46 44 43 42 40 35 31 30 28 28 29 33 37 33 35 40 43 40 39 40 40 39 40 40 43 49 55 63 68 68 67 61 59 59 60 62 57 56 53 50 48 47
42 37 32 28 25 22 22 23 24 25 27 28 31 36 33 34 41 39 37 39 37 34 37 40 40 43 47 51 55 62 66 65 63 61 58 55 58 59 54 52 53 50 47
Wind_Direction
293 291 290 291 290 288 287 287 285 283 280 278 274 271 271 269 268 269 269 268 269 271 272 271 272 269 268 268 268 268 269 268 269 266 263 262 259 255 250 246 245 246 246
293 292 290 290 285 285 285 284 281 281 280 277 276 274 271 268 266 264 264 264 265 265 267 269 269 269 269 268 267 266 266 266 266 266 264 263 261 258 254 249 245 245 246
290 290 290 289 290 287 281 278 279 279 276 274 274 273 271 270 268 265 262 260 260 261 261 264 265 265 265 267 266 264 263 262 263 263 263 263 262 258 256 252 247 246 246
288 287 286 285 285 284 285 286 281 274 274 274 271 268 268 267 267 265 264 262 259 258 258 258 261 262 261 262 264 262 261 260 259 261 261 261 262 260 256 253 248 246 248
288 287 286 285 285 282 280 279 279 279 277 272 269 269 266 264 265 264 263 261 259 257 256 257 255 257 258 257 259 260 258 258 256 256 258 259 259 260 258 254 252 247 247
289 287 286 285 284 282 279 276 275 274 275 275 274 268 267 266 262 262 262 261 259 257 255 254 255 253 254 255 254 255 256 255 255 253 253 256 257 258 258 256 255 253 250
283 280 279 281 282 282 279 278 275 274 273 272 270 272 269 265 266 263 261 260 259 257 256 254 252 252 251 252 253 252 253 253 252 251 250 252 254 255 257 257 256 255 254
287 286 286 285 283 278 273 271 272 273 273 272 270 267 267 267 264 263 260 260 260 258 255 253 252 251 250 250 251 252 251 251 250 250 247 248 250 252 254 255 256 255 255
290 290 288 287 286 284 282 279 275 271 267 267 268 267 266 265 263 261 262 258 258 259 256 252 250 249 249 247 248 249 249 249 248 248 247 245 246 249 251 253 255 256 254
289 287 286 284 283 282 280 279 279 277 274 270 264 262 263 264 262 260 259 256 254 254 256 250 247 246 247 247 245 246 247 247 247 245 245 245 243 244 248 250 252 254 256
290 288 286 284 283 282 281 279 277 275 272 268 264 263 261 258 258 258 257 255 257 248 250 246 244 244 244 244 244 243 244 245 244 244 243 244 243 242 244 246 248 251 253
293 293 292 289 287 283 280 278 276 274 271 268 266 263 262 261 257 255 253 254 251 249 250 248 240 242 244 242 242 242 241 242 242 243 242 241 243 242 241 243 246 248 250
298 295 293 291 289 286 283 279 276 273 270 267 264 260 258 257 255 252 250 249 251 245 250 241 240 236 239 239 238 239 238 238 240 241 242 240 241 242 242 241 243 245 248
298 295 293 292 290 289 287 282 277 274 270 268 265 262 259 254 254 251 248 245 245 243 241 243 234 232 229 232 234 236 237 237 237 239 241 241 240 240 241 242 242 243 245
297 296 296 295 293 289 285 281 276 274 275 272 269 266 263 258 251 250 247 246 243 241 238 240 239 232 234 231 230 234 236 237 236 236 239 241 240 240 239 241 243 243 243
299 300 298 296 291 287 282 277 275 276 273 272 269 267 265 263 258 249 247 242 243 241 238 237 238 237 228 235 232 232 237 237 238 236 237 241 241 241 239 239 243 244 244
302 300 297 293 287 286 285 281 278 275 273 271 267 264 264 262 259 251 246 244 239 240 238 234 235 237 232 229 234 233 234 239 238 238 235 237 241 241 241 241 243 244 244
302 298 295 291 289 290 287 283 279 275 273 270 266 265 265 263 255 249 243 243 239 236 236 232 233 233 234 230 230 231 233 235 237 239 236 236 238 241 242 244 244 244 244
299 295 293 291 292 289 283 279 278 275 271 269 266 267 264 257 250 246 241 241 239 235 233 233 229 231 233 231 228 231 232 233 235 237 238 237 237 240 242 244 245 245 245
298 295 294 293 291 286 281 277 275 271 270 269 269 265 257 252 244 243 242 242 241 237 232 232 229 228 230 233 229 226 228 233 233 235 235 237 236 237 241 243 244 245 245
298 296 293 291 288 284 279 276 270 269 268 268 266 258 255 246 239 240 241 241 240 238 234 230 228 225 228 229 232 225 228 228 230 232 233 235 237 236 238 241 243 245 245
298 297 295 290 286 281 273 268 268 267 267 263 258 252 260 244 237 238 239 238 236 237 236 232 229 226 224 225 228 227 225 227 227 229 232 232 235 236 237 239 242 245 247
304 298 293 288 280 275 272 271 267 264 259 251 239 233 252 244 233 234 234 233 234 234 231 227 224 227 224 223 225 224 220 226 227 227 229 230 231 233 237 240 242 245 248
309 304 297 289 285 283 279 271 265 258 246 235 224 230 248 240 229 229 229 228 229 230 226 220 216 219 219 221 222 222 218 222 224 223 223 230 232 230 235 238 241 244 248
309 306 302 295 291 286 280 268 256 243 234 240 227 232 236 238 224 224 226 227 229 230 228 223 217 217 218 218 220 221 218 220 223 224 227 228 232 231 232 235 239 241 246
314 312 309 305 299 292 280 264 252 242 232 238 236 227 230 228 217 216 220 227 229 233 232 230 226 225 221 220 218 218 216 213 215 222 225 226 227 232 232 234 237 240 244
Height
5845 5845 5843 5841 5839 5838 5837 5836 5835 5834 5833 5832 5832 5832 5832 5833 5833 5834 5836 5837 5838 5839 5840 5841 5842 5843 5843 5843 5844 5844 5844 5844 5844 5844 5844 5844 5845 5846 5846 5848 5849 5850 5851
5836 5834 5833 5832 5831 5830 5827 5826 5825 5824 5823 5823 5822 5822 5822 5822 5823 5824 5826 5829 5828 5830 5831 5833 5834 5836 5837 5837 5838 5838 5839 5839 5839 5840 5840 5840 5841 5842 5842 5843 5845 5846 5847
5826 5824 5822 5820 5818 5817 5818 5817 5814 5812 5812 5811 5811 5810 5810 5811 5812 5813 5815 5817 5819 5820 5822 5823 5825 5827 5829 5830 5831 5832 5833 5834 5834 5834 5835 5835 5836 5837 5838 5839 5840 5842 5843
5817 5814 5812 5809 5807 5804 5802 5800 5801 5802 5799 5797 5797 5797 5798 5798 5799 5801 5803 5805 5807 5809 5811 5813 5815 5817 5819 5821 5823 5825 5826 5826 5828 5829 5830 5831 5831 5832 5833 5835 5836 5837 5839
5806 5803 5800 5797 5794 5792 5790 5788 5785 5783 5783 5785 5784 5781 5783 5784 5786 5786 5789 5792 5794 5797 5800 5801 5804 5807 5809 5811 5813 5815 5818 5819 5820 5822 5823 5825 5826 5827 5828 5830 5832 5833 5834
5792 5789 5786 5783 5780 5778 5775 5772 5772 5770 5768 5767 5766 5767 5769 5769 5770 5772 5774 5777 5781 5784 5786 5790 5792 5795 5798 5801 5803 5806 5808 5811 5812 5814 5816 5818 5820 5822 5823 5825 5826 5828 5829
5782 5778 5774 5769 5764 5761 5759 5757 5755 5753 5753 5752 5750 5749 5752 5752 5754 5757 5759 5762 5766 5770 5773 5776 5781 5783 5787 5790 5793 5796 5799 5801 5804 5806 5808 5811 5813 5816 5817 5819 5821 5823 5825
5763 5759 5755 5751 5748 5746 5744 5741 5738 5735 5735 5733 5729 5731 5734 5736 5738 5741 5742 5746 5749 5753 5758 5762 5767 5770 5774 5778 5782 5785 5788 5791 5794 5797 5800 5803 5805 5808 5811 5813 5815 5817 5819
5744 5738 5733 5729 5725 5722 5720 5718 5717 5716 5716 5715 5710 5709 5714 5717 5720 5723 5724 5728 5733 5736 5742 5745 5751 5756 5760 5766 5770 5774 5778 5781 5784 5788 5791 5794 5797 5800 5803 5806 5808 5811 5813
5726 5720 5715 5710 5705 5700 5698 5696 5692 5691 5691 5693 5690 5691 5692 5695 5698 5703 5704 5711 5715 5719 5725 5729 5734 5740 5746 5752 5757 5761 5766 5770 5774 5777 5780 5784 5788 5791 5795 5798 5801 5804 5806
5705 5699 5693 5688 5683 5678 5673 5669 5666 5664 5664 5666 5665 5667 5670 5676 5676 5680 5685 5693 5697 5702 5705 5711 5718 5723 5731 5738 5743 5748 5753 5758 5762 5766 5770 5774 5778 5782 5786 5790 5793 5796 5799
5683 5676 5668 5661 5657 5653 5649 5646 5643 5640 5640 5641 5642 5643 5647 5651 5658 5659 5664 5671 5677 5688 5688 5695 5701 5709 5715 5723 5729 5734 5739 5744 5750 5755 5759 5763 5768 5772 5776 5780 5784 5787 5790
5658 5651 5642 5637 5632 5628 5624 5621 5616 5615 5613 5612 5616 5619 5622 5628 5632 5638 5643 5651 5654 5668 5675 5680 5686 5694 5700 5708 5714 5720 5725 5731 5737 5743 5747 5752 5757 5762 5766 5770 5774 5778 5782
5634 5628 5620 5613 5608 5600 5593 5588 5586 5585 5584 5584 5586 5588 5594 5603 5607 5613 5621 5629 5635 5645 5652 5656 5669 5678 5685 5693 5699 5705 5712 5717 5724 5731 5736 5741 5746 5751 5756 5760 5764 5768 5773
5610 5604 5596 5587 5580 5574 5568 5563 5563 5563 5560 5562 5563 5564 5566 5573 5580 5587 5593 5604 5614 5624 5635 5646 5653 5663 5670 5677 5684 5692 5698 5704 5711 5717 5724 5729 5735 5740 5746 5750 5754 5758 5763
5586 5577 5569 5562 5555 5550 5547 5543 5542 5543 5540 5540 5541 5542 5544 5549 5554 5560 5566 5578 5588 5600 5614 5628 5636 5644 5651 5660 5669 5677 5686 5692 5699 5705 5712 5718 5724 5729 5735 5739 5744 5749 5753
5561 5553 5544 5537 5532 5528 5525 5521 5520 5519 5518 5519 5518 5519 5521 5525 5529 5537 5543 5552 5565 5576 5590 5605 5616 5626 5633 5645 5653 5663 5672 5679 5687 5693 5699 5705 5712 5718 5724 5729 5734 5738 5743
5537 5527 5520 5515 5511 5507 5503 5499 5496 5496 5495 5496 5496 5495 5499 5502 5505 5512 5521 5529 5541 5553 5564 5581 5593 5606 5614 5625 5637 5648 5656 5666 5674 5680 5687 5693 5700 5707 5713 5718 5723 5728 5732
5514 5506 5498 5494 5489 5485 5480 5478 5474 5473 5473 5474 5474 5474 5477 5480 5485 5492 5500 5508 5519 5531 5543 5555 5573 5583 5593 5605 5622 5631 5641 5651 5660 5668 5675 5682 5688 5695 5701 5707 5712 5717 5722
5491 5484 5477 5471 5465 5460 5456 5454 5451 5450 5452 5453 5454 5455 5458 5463 5468 5475 5482 5491 5499 5510 5523 5534 5552 5563 5574 5586 5601 5616 5626 5635 5646 5654 5663 5670 5676 5682 5689 5696 5701 5706 5711
5467 5459 5453 5446 5440 5435 5432 5431 5431 5430 5432 5435 5437 5439 5443 5448 5453 5460 5467 5476 5484 5493 5504 5518 5532 5543 5557 5568 5585 5601 5609 5619 5630 5640 5650 5657 5665 5671 5677 5683 5689 5695 5700
5442 5432 5425 5419 5415 5412 5411 5410 5412 5413 5416 5419 5422 5425 5430 5434 5440 5448 5455 5462 5471 5478 5488 5502 5514 5527 5540 5553 5565 5581 5592 5601 5615 5627 5635 5645 5652 5659 5665 5671 5678 5683 5689
5418 5408 5401 5397 5395 5394 5394 5395 5396 5397 5400 5404 5409 5414 5419 5423 5429 5436 5443 5452 5459 5467 5476 5487 5498 5511 5521 5536 5549 5564 5576 5586 5600 5610 5619 5630 5639 5648 5654 5660 5666 5672 5677
5400 5393 5388 5384 5381 5380 5379 5379 5381 5383 5387 5392 5399 5405 5409 5413 5420 5426 5434 5442 5450 5458 5466 5476 5487 5496 5507 5516 5529 5545 5558 5570 5581 5591 5607 5618 5627 5636 5642 5649 5655 5661 5666
5390 5383 5376 5371 5367 5364 5363 5364 5367 5371 5376 5381 5386 5392 5397 5403 5410 5418 5426 5433 5440 5449 5457 5466 5475 5484 5492 5501 5514 5528 5543 5556 5570 5583 5598 5606 5614 5622 5630 5638 5644 5649 5654
5379 5371 5365 5360 5357 5355 5354 5355 5358 5362 5366 5371 5376 5381 5387 5393 5399 5408 5418 5425 5433 5441 5446 5454 5463 5472 5481 5491 5501 5516 5530 5545 5558 5570 5582 5594 5601 5608 5619 5626 5631 5636 5642